Weather History for KIML - August, 2013

Change the Weather History Date:

Monday, August 26, 2013

  Actual Average Record
Temperature  
Mean Temperature 86 °F 72 °F  
Max Temperature 102 °F 86 °F 102 °F (1926)
Min Temperature 69 °F 58 °F 35 °F (1910)
Degree Days  
Heating Degree Days 0 0  
Month to date heating degree days 0 0  
Since 1 June heating degree days 32 36  
Cooling Degree Days 21 7  
Month to date cooling degree days 268 248  
Year to date cooling degree days 889 832  
Since 1 June cooling degree days 821 788  
Growing Degree Days 34 (Base 50)    
Moisture  
Dew Point 55 °F    
Average Humidity 43    
Maximum Humidity 66    
Minimum Humidity 19    
Precipitation  
Precipitation 0.00 in 0.10 in 1.13 in (1980)
Sea Level Pressure  
Sea Level Pressure 29.91 in    
Wind  
Wind Speed 10 mph (SSW)    
Max Wind Speed 16 mph    
Max Gust Speed 23 mph    
Visibility 10 miles    
Events      
T = Trace of Precipitation, MM = Missing Value Source: NWS Daily Summary

Daily Weather History Graph

Daily Weather History Graph

Search for Another Location

Airport or City:

Trip Planner

Search our weather history database for the weather conditions in past years. The results will help you decide how hot, cold, wet, or windy it might be!

Date:

Astronomy

Aug. 26, 2013 Rise Set
Actual Time 6:08 AM MDT 7:27 PM MDT
Civil Twilight 5:39 AM MDT 7:55 PM MDT
Nautical Twilight 5:05 AM MDT 8:29 PM MDT
Astronomical Twilight 4:29 AM MDT 9:05 PM MDT
Moon 10:37 PM MDT (8/26) 12:13 PM MDT (8/26)
Length of Visible Light 14h 15m
Length of Day
13h 19m
Waning Gibbous, 66% of the Moon is Illuminated
Aug 26
Waning Gibbous
Aug 28
Last Quarter
Sep 5
New
Sep 12
First Quarter
Sep 19
Full

Hourly Weather History & Observations

Time (MDT) Temp. Heat Index Dew Point Humidity Pressure Visibility Wind Dir Wind Speed Gust Speed Precip Events Conditions
12:53 AM 77.0 °F - 55.9 °F 48% 29.94 in 10.0 mi South 12.7 mph 21.9 mph N/A   Clear
1:53 AM 75.9 °F - 57.0 °F 52% 29.93 in 10.0 mi South 11.5 mph - N/A   Clear
2:53 AM 75.0 °F - 57.0 °F 53% 29.93 in 10.0 mi South 13.8 mph 19.6 mph N/A   Clear
3:53 AM 73.9 °F - 57.9 °F 57% 29.94 in 10.0 mi SSW 12.7 mph - N/A   Clear
4:53 AM 72.0 °F - 57.9 °F 61% 29.93 in 10.0 mi SSW 12.7 mph - N/A   Clear
5:53 AM 69.1 °F - 57.0 °F 65% 29.96 in 10.0 mi SSW 8.1 mph - N/A   Clear
6:53 AM 70.0 °F - 57.9 °F 65% 29.97 in 10.0 mi SSW 6.9 mph - N/A   Clear
7:53 AM 73.9 °F - 57.9 °F 57% 29.97 in 10.0 mi SW 8.1 mph - N/A   Clear
8:53 AM 80.1 °F 80.4 °F 57.0 °F 45% 29.96 in 10.0 mi SW 12.7 mph 20.7 mph N/A   Clear
9:53 AM 87.1 °F 85.9 °F 57.0 °F 36% 29.96 in 10.0 mi SW 10.4 mph - N/A   Clear
10:53 AM 91.0 °F 89.7 °F 57.0 °F 32% 29.95 in 10.0 mi SW 6.9 mph - N/A   Clear
11:53 AM 93.9 °F 92.6 °F 57.0 °F 29% 29.94 in 10.0 mi SW 9.2 mph - N/A   Clear
12:53 PM 97.0 °F 95.3 °F 55.9 °F 25% 29.91 in 10.0 mi WSW 10.4 mph - N/A   Clear
1:53 PM 99.0 °F 96.9 °F 54.0 °F 22% 29.89 in 10.0 mi WSW 8.1 mph 17.3 mph N/A   Clear
2:53 PM 100.0 °F 97.9 °F 54.0 °F 21% 29.87 in 10.0 mi West 8.1 mph - N/A   Clear
3:53 PM 100.9 °F - 50.0 °F 18% 29.85 in 10.0 mi SSW 5.8 mph - N/A   Partly Cloudy
4:53 PM 99.0 °F - 51.1 °F 20% 29.85 in 10.0 mi SSW 10.4 mph - N/A   Scattered Clouds
5:53 PM 95.0 °F - 50.0 °F 22% 29.86 in 10.0 mi South 10.4 mph 17.3 mph N/A   Partly Cloudy
6:53 PM 93.9 °F - 52.0 °F 24% 29.86 in 10.0 mi South 13.8 mph 20.7 mph N/A   Clear
7:53 PM 88.0 °F 85.7 °F 53.1 °F 30% 29.87 in 10.0 mi South 11.5 mph - N/A   Clear
8:53 PM 84.9 °F 83.3 °F 54.0 °F 34% 29.88 in 10.0 mi South 9.2 mph - N/A   Clear
9:53 PM 82.0 °F 81.6 °F 55.9 °F 41% 29.88 in 10.0 mi South 10.4 mph - N/A   Clear
10:53 PM 81.0 °F 80.8 °F 55.9 °F 42% 29.88 in 10.0 mi South 11.5 mph - N/A   Clear
11:53 PM 79.0 °F - 55.9 °F 45% 29.88 in 10.0 mi South 12.7 mph - N/A   Clear